Location: Asheville, NC
(35.6000°N, 82.5500°W)
Time: 16:40:39
(UTC-05:00)

Vanguard 2 Rocket - Pass Details

Date: 08 December 2017
Orbit: 556 x 3326 km, 32.9° (Epoch: 19 January)

Event Time Altitude Azimuth Distance (km) Brightness Sun altitude
Rises 22:22:28 0° 256° (WSW) 6,074 11.5 -61.0°
Reaches altitude 10° 22:25:57 10° 256° (WSW) 5,348 11.0 -61.7°
Enters shadow 22:34:08 40° 252° (WSW) 3,933 10.0 -63.3°
